Regional Weather Roundup
Issued by NWS

Home | Current Version | Previous Version | Graphics & Text | Print | Product List | Glossary On
Versions: 1 2 3 4 5 6 7 8 9 10 11 12 13 14 15 16 17 18 19 20 21 22 23 24 25 26 27 28 29 30 31 32 33 34 35 36 37 38 39 40 41 42 43 44 45 46 47 48 49 50
695
ASUS45 KSLC 172110
RWRUT

UTAH REGIONAL WEATHER ROUNDUP
NATIONAL WEATHER SERVICE SALT LAKE CITY UT
200 PM MST SUN DEC 17 2017

UTZ001>011-023>025-172200-

NORTHERN UTAH

CITY           SKY/WX    TMP DP  RH WIND       PRES   REMARKS
BRIGHAM CITY   MOSUNNY   33  22  62 SE3       30.21F
HILL AFB       SUNNY     32  21  65 CALM      30.18F
LOGAN          PTSUNNY   34  19  54 CALM      30.20F
OGDEN          PTSUNNY   33  23  66 VRB6      30.19F WCI  28
SALT LAKE CITY PTSUNNY   35  25  66 NW6       30.21F WCI  30
TOOELE VALLEY  SUNNY     32  27  80 N5        30.23R WCI  27
WENDOVER       SUNNY     34  19  54 SE6       30.21F WCI  29
HEBER CITY       N/A     36  19  51 SW13      30.09F WCI  27
WEST JORDAN    MOSUNNY   32  26  77 NW9       30.21R WCI  24

$$

UTZ011>015-024>027-172200-

CENTRAL/NORTHEAST UTAH

CITY           SKY/WX    TMP DP  RH WIND       PRES   REMARKS
PROVO AIRPORT  MOSUNNY   35  23  61 SW5       30.19F WCI  31
MOAB/CANYONLAN SUNNY     43  13  29 CALM      30.03F
DELTA          CLOUDY    34  19  55 N6        30.18S WCI  29
PRICE          SUNNY     44   7  21 NW6       30.01F
RICHFIELD      PTSUNNY   36  19  51 NE6       30.13F WCI  31
ROOSEVELT      SUNNY     41  19  42 E3        30.06F
VERNAL         SUNNY     40  19  43 VRB5      30.04F

$$

UTZ013>016-019>022-027-172200-

SOUTHERN UTAH

CITY           SKY/WX    TMP DP  RH WIND       PRES   REMARKS
BRYCE CANYON   SUNNY     36  17  46 N6        30.03F WCI  31
CEDAR CITY     CLOUDY    32  21  64 N13       30.10F WCI  22
MILFORD        CLOUDY    34  21  59 N14       30.14F WCI  25
ST GEORGE      CLEAR     50  22  33 S6        30.06F
HANKSVILLE     SUNNY     43  19  39 SE3       30.07F
KANAB          SUNNY     52  10  19 NE2       30.03F
BLANDING         N/A     46   6  19 SW6       30.06S

$$

REGIONAL REPORTS     COLORADO/ARIZONA

CITY           SKY/WX    TMP DP  RH WIND       PRES   REMARKS
CRAIG, CO      SUNNY     32  20  61 VRB3      30.04F
GRAND JUNCTION SUNNY     42  11  28 NW3       30.02F
RIFLE, CO      SUNNY     41  11  29 CALM      30.00F
MONTROSE, CO   SUNNY     40   7  25 NW8       30.02F WCI  34
CORTEZ, CO     SUNNY     47   5  18 SW8       29.98F
COLORADO CITY    N/A     48  21  34 NW9       30.04F
PAGE, AZ       SUNNY     46  16  30 VRB3      30.02F
GRAND CANYON   SUNNY     46  11  24 NE14      29.99F
KINGMAN, AZ    SUNNY     53  20  27 N13G20    29.98F
FLAGSTAFF, AZ  SUNNY     43  13  29 NE12      29.96F

$$

REGIONAL REPORTS    NEVADA/IDAHO/WYOMING

CITY           SKY/WX    TMP DP  RH WIND       PRES   REMARKS
LAS VEGAS, NV  MOSUNNY   55  17  22 N9G24     30.05F
ELY, NY        SUNNY     30  15  53 N13       30.14F WCI  20
ELKO, NV       SUNNY     32  18  56 SW12      30.18F WCI  23
POCATELLO, ID  CLOUDY    26  19  74 SW6       30.19F WCI  19
BURLEY, ID     SUNNY     35  18  49 W8        30.18F WCI  29
FORT BRIDGER,    N/A     31  15  52 W24G30    30.08S WCI  17
EVANSTON, WY   CLOUDY    27  17  66 W14       30.08F WCI  16
ROCK SPRINGS,  SUNNY     28  13  53 W25G33    30.00F WCI  13

$$




USA.gov is the U.S. government's official web portal to all federal, state and local government web resources and services.